Regional Weather Roundup
Issued by NWS

Home | Current Version | Previous Version | Graphics & Text | Print | Product List | Glossary On
Versions: 1 2 3 4 5 6 7 8 9 10 11 12 13 14 15 16 17 18 19 20 21 22 23 24 25 26 27 28 29 30 31 32 33 34 35 36 37 38 39 40 41 42 43 44 45 46 47 48 49 50
000
ASUS43 KOAX 220210
RWRNE

WEATHER ROUNDUP FOR NEBRASKA
NATIONAL WEATHER SERVICE OMAHA NE
800 PM CST WED FEB 21 2018

NOTES: SATELLITE DATA IS BEING USED TO AUGMENT CLOUD COVER ABOVE
       12000 FEET.
       "FAIR" INDICATES FEW OR NO CLOUDS BELOW 12,000 FEET WITH NO
       SIGNIFICANT WEATHER AND/OR OBSTRUCTIONS TO VISIBILITY.


NEZ001>004-019>022-054>056-220300-
NEBRASKA PANHANDLE

CITY           SKY/WX    TMP DP  RH WIND       PRES   REMARKS
SCOTTSBLUFF    FAIR      18  10  71 E13       30.21R WCI   5
ALLIANCE       FAIR      15   9  76 S16       30.21R WCI  -1
CHADRON        FAIR       0  -5  79 CALM      30.24S
GORDON         FAIR      17   8  67 S6        30.24R WCI   8
KIMBALL        FAIR      13   6  73 S8        30.16R WCI   2
SIDNEY         FAIR      13   7  77 SE8       30.22R WCI   2
$$

NEZ057>060-069>072-079>082-220300-
SOUTHWEST NEBRASKA

CITY           SKY/WX    TMP DP  RH WIND       PRES   REMARKS
NORTH PLATTE   MOCLDY    19  10  68 E7        30.37R WCI  10
IMPERIAL       FAIR      15   7  70 SE7       30.31R WCI   5
LEXINGTON      CLOUDY    28   9  44 SE9       30.41R WCI  19
MCCOOK         CLOUDY    27   8  44 E12       30.36F WCI  17
OGALLALA       FAIR      17  10  74 E7        30.31F WCI   8
$$

NEZ005>010-023>029-035>040-094-220300-
NORTH CENTRAL NEBRASKA

CITY           SKY/WX    TMP DP  RH WIND       PRES   REMARKS
VALENTINE      FAIR      14   6  70 S12       30.35S WCI   0
AINSWORTH      FAIR      16   8  72 S8        30.38S WCI   5
BROKEN BOW     CLOUDY    24  11  57 SE8       30.40S WCI  15
O`NEILL        CLOUDY    19  12  74 SE7       30.47R WCI  10
ORD            CLOUDY    21  10  62 SE6       30.44F WCI  13
THEDFORD         N/A     11   7  82 CALM      30.37R
$$

NEZ041-046>049-061>064-073>077-083>087-220300-
SOUTH CENTRAL NEBRASKA

CITY           SKY/WX    TMP DP  RH WIND       PRES   REMARKS
GRAND ISLAND   CLOUDY    25  11  55 E8        30.47S WCI  16
AURORA         CLOUDY    24  10  55 E10       30.46F WCI  13
HASTINGS       CLOUDY    25   5  42 E9        30.45S WCI  15
HEBRON         CLOUDY    26  13  57 E12       30.48F WCI  16
HOLDREGE       CLOUDY    26   8  46 E8        30.40F WCI  17
KEARNEY        CLOUDY    25   9  50 E10       30.44S WCI  15
YORK           CLOUDY    23  12  63 E9        30.48F WCI  13
$$

NEZ011>018-030>034-042>045-220300-
NORTHEAST NEBRASKA

CITY           SKY/WX    TMP DP  RH WIND       PRES   REMARKS
NORFOLK        MOCLDY    20  13  74 SE6       30.49S WCI  12
ALBION         CLOUDY    20  12  71 SE5       30.50S WCI  14
BLAIR          CLOUDY    24  18  77 E9        30.53S WCI  14
COLUMBUS       CLOUDY    22  14  71 E7        30.53S WCI  13
FREMONT        CLOUDY    24  16  73 E7        30.54S WCI  16
TEKAMAH        FAIR      24  16  71 E9        30.56F WCI  14
WAYNE          CLOUDY    18  10  70 E5        30.53F WCI  11
$$

NEZ050>053-065>068-078-088>093-220300-
SOUTHEAST NEBRASKA

CITY           SKY/WX    TMP DP  RH WIND       PRES   REMARKS
LINCOLN        CLOUDY    25  13  60 E12       30.53F WCI  14
OMAHA EPPLEY   CLOUDY    24  15  68 NE7       30.57R WCI  16
BEATRICE       CLOUDY    26  17  68 E12       30.50F WCI  15
FALLS CITY     CLOUDY    28  20  71 E10       30.52S WCI  19
NEBRASKA CITY  CLOUDY    26  21  83 NE12      30.51F WCI  15
PLATTSMOUTH    CLOUDY    25  17  73 E8        30.53F WCI  16
$$

NEZ044-045-051>053-067-220300-
OMAHA AREA

CITY           SKY/WX    TMP DP  RH WIND       PRES   REMARKS
OMAHA EPPLEY   CLOUDY    24  15  68 NE7       30.57R WCI  16
BLAIR          CLOUDY    24  18  77 E9        30.53S WCI  14
FREMONT        CLOUDY    24  16  73 E7        30.54S WCI  16
MILLARD        CLOUDY    26  16  64 E7        30.55S WCI  19
OFFUTT AFB     CLOUDY    25  15  66 E8        30.54F WCI  16
PLATTSMOUTH    CLOUDY    25  17  73 E8        30.53F WCI  16
WAHOO          CLOUDY    24  16  69 E9        30.53S WCI  15
$$




USA.gov is the U.S. government's official web portal to all federal, state and local government web resources and services.